Wind_Speed
6 6 5 5 5 4 7 5 4 4 5 5 5 4 4 4 4 5 5 5 5 5 5 5 5 4 4 4 3 3 3 3 3 3 4 3 3 3 3 3 4 5 5 6 6 7 7 8 8
7 6 6 6 5 7 9 7 5 6 6 6 6 5 5 6 6 6 6 6 5 6 5 5 5 4 5 4 5 4 4 4 4 4 4 4 4 4 4 4 5 5 6 7 7 8 8 9 9
7 7 7 6 6 8 10 9 7 7 7 6 6 6 6 6 7 6 6 6 6 6 6 6 5 5 6 5 5 5 4 4 5 5 5 4 5 5 5 5 6 6 7 8 8 9 9 9 10
8 8 8 8 8 9 9 10 9 8 7 7 7 6 6 6 6 5 5 6 6 6 7 8 7 6 7 7 5 6 6 6 6 6 6 5 5 5 6 6 7 7 8 8 9 10 10 10 10
8 8 8 9 10 10 10 10 9 8 8 7 7 6 6 6 5 5 5 6 6 7 8 8 8 8 7 7 7 8 7 7 7 7 6 5 6 6 6 7 8 8 9 9 10 10 11 11 11
8 8 9 10 11 11 11 10 10 9 8 8 7 7 7 7 6 7 8 7 7 8 8 8 8 8 8 8 8 8 8 7 7 6 6 7 7 7 7 8 9 9 10 10 10 11 11 11 11
9 9 9 10 11 11 11 10 10 10 9 9 8 7 7 7 7 8 8 8 8 8 9 9 8 8 9 9 9 8 8 8 7 7 7 8 8 8 8 9 10 10 11 11 11 11 11 11 12
9 9 9 10 11 12 11 11 10 10 9 8 8 8 8 8 8 8 9 8 9 8 8 8 8 9 9 9 9 9 8 9 8 8 9 9 9 10 10 11 11 11 12 12 12 11 12 12 13
9 9 9 11 12 13 12 11 11 10 10 9 8 8 8 8 8 9 9 10 10 9 9 9 10 9 9 9 8 9 9 10 10 10 10 10 11 11 12 12 12 12 13 13 12 12 12 13 13
10 10 10 12 12 13 12 11 11 11 11 11 10 10 9 9 9 10 10 10 10 10 9 10 10 9 9 8 9 9 10 11 11 11 11 11 12 13 13 13 13 13 13 13 14 14 14 14 14
11 11 11 11 12 12 11 11 11 11 11 11 12 10 9 9 10 11 11 11 11 12 11 10 10 10 9 10 10 10 11 12 12 13 13 14 14 14 15 15 14 14 14 14 14 14 14 14 15
11 11 11 12 12 11 11 11 11 11 11 12 12 10 9 9 10 11 11 11 11 11 11 11 10 10 10 10 11 11 12 13 13 12 14 15 16 16 16 16 15 15 14 15 15 15 14 15 15
12 12 13 13 13 13 12 13 12 12 12 12 12 12 11 10 10 11 12 12 11 11 11 11 11 12 11 12 13 13 13 13 13 13 14 15 16 17 17 17 17 16 15 15 16 15 15 15 16
13 13 13 14 14 14 13 13 13 12 13 13 13 12 12 12 12 12 12 12 12 12 12 13 13 14 14 14 14 14 14 14 14 15 15 16 17 17 18 18 18 17 16 16 16 16 16 16 16
13 13 13 15 15 15 14 13 13 13 13 13 13 13 13 13 13 13 13 13 13 14 14 13 14 14 14 14 14 15 15 15 15 15 15 15 16 16 17 17 17 16 16 17 17 17 17 17 17
13 13 13 15 16 15 15 14 14 13 13 13 13 14 14 13 14 13 13 13 14 14 13 14 15 15 14 15 15 16 16 16 16 15 15 15 16 16 16 16 17 16 16 16 16 16 17 18 18
13 13 14 15 16 16 15 14 14 14 14 13 13 13 15 15 15 14 14 13 14 14 14 15 16 16 16 16 16 16 16 16 16 15 16 16 16 16 17 17 17 16 16 15 16 16 17 17 17
14 14 15 15 16 16 15 15 14 15 15 14 14 14 14 15 14 14 14 14 14 15 15 16 17 17 17 17 16 16 16 15 16 16 16 15 16 16 17 17 16 16 16 16 16 16 16 17 17
15 15 15 15 16 16 16 15 15 15 15 15 14 14 15 16 16 15 15 15 16 16 17 17 17 17 17 17 17 16 16 16 16 16 17 16 16 16 16 16 16 17 17 16 15 16 16 17 18
15 15 15 15 16 16 16 16 16 15 15 15 14 15 16 17 17 17 17 17 18 18 18 18 18 17 17 18 17 17 16 17 17 17 17 17 16 16 16 15 16 16 16 16 16 16 16 16 17
15 15 15 16 16 15 16 16 16 16 16 15 15 16 17 18 18 18 18 18 18 18 18 18 17 18 18 18 18 17 17 17 17 17 17 17 17 17 16 15 16 16 15 16 17 17 17 17 17
14 14 15 15 15 15 15 16 17 16 16 16 16 17 18 19 18 18 18 17 17 17 17 17 17 18 18 19 18 18 17 17 17 17 17 18 17 16 16 17 17 18 18 17 17 17 17 17 17
14 14 14 15 15 15 16 17 16 17 17 17 17 18 19 19 18 17 17 17 16 17 17 17 17 18 18 19 19 18 17 17 16 16 16 17 17 17 17 17 17 17 18 18 17 17 17 17 17
15 14 14 14 15 16 16 17 16 16 17 17 17 18 19 19 19 18 17 17 17 17 17 18 19 19 19 19 20 20 19 18 18 17 16 16 17 17 17 17 17 17 17 18 17 17 17 17 17
16 14 13 13 14 15 16 17 16 16 16 16 16 17 17 19 19 18 18 18 18 17 18 18 18 19 19 19 19 19 18 17 17 17 17 17 16 16 16 15 16 16 17 17 17 16 17 17 17
17 15 15 14 14 14 16 16 16 16 16 15 15 16 17 17 18 17 17 18 18 18 18 18 18 18 18 18 17 16 16 15 14 15 16 17 17 16 15 15 15 15 15 16 17 16 16 17 17
16 16 15 15 15 15 15 16 16 15 15 15 14 15 16 16 16 16 17 17 18 18 18 18 17 18 18 17 16 15 14 14 13 14 15 16 16 16 16 15 15 15 15 15 15 15 16 16 16
17 17 16 15 15 15 15 16 15 15 15 15 15 15 15 15 15 16 16 17 17 17 17 17 16 17 17 17 16 15 14 14 15 14 15 15 15 15 14 14 14 15 15 15 15 15 16 16 17
17 18 17 16 16 15 14 14 15 16 15 15 15 15 15 15 15 15 15 16 17 17 17 16 15 16 16 15 15 14 15 15 15 15 15 14 14 14 13 13 14 14 14 14 15 15 16 16 16
18 17 17 17 16 16 15 15 16 15 16 16 15 15 15 15 15 15 15 15 16 17 16 16 16 15 15 14 14 14 15 15 15 15 15 14 14 14 13 14 14 14 14 14 14 14 15 15 16
Wind_Direction
246 243 241 236 234 239 242 244 254 267 270 273 278 276 280 292 290 298 309 308 314 320 323 328 328 319 311 300 295 301 286 282 270 267 271 265 262 257 254 258 260 260 258 260 263 262 259 257 255
246 243 243 239 231 239 248 251 256 265 271 275 279 276 278 281 277 287 297 299 304 311 317 318 317 314 316 301 286 286 285 282 274 266 268 263 260 259 262 264 264 262 261 263 264 267 266 260 260
244 243 237 232 232 232 245 252 259 270 271 272 274 274 280 282 275 283 293 295 299 306 307 306 305 301 304 298 290 284 284 280 275 270 263 260 257 256 262 266 265 264 265 265 265 265 266 264 263
244 243 237 233 238 239 243 252 259 272 271 268 268 273 277 285 275 280 294 298 296 300 303 300 300 298 298 294 288 292 283 276 273 269 262 259 264 262 263 264 265 265 266 265 266 265 266 263 262
244 242 239 239 243 246 247 249 256 264 266 268 267 273 281 283 287 282 298 301 300 302 301 301 296 291 288 289 288 291 286 275 270 269 270 268 268 268 267 268 269 269 268 267 267 268 268 264 261
247 246 240 242 247 247 245 249 253 258 262 269 274 276 279 284 290 289 298 305 302 303 299 297 293 288 285 284 284 287 283 276 270 271 270 269 267 268 269 270 269 270 271 271 269 269 265 262 261
246 244 242 246 248 244 246 249 252 259 262 267 273 275 277 280 286 288 293 304 298 297 295 297 292 284 280 278 279 278 275 273 272 273 271 271 268 268 270 273 269 269 270 271 273 268 264 262 263
249 245 243 245 248 245 245 249 251 255 258 263 270 271 273 282 287 286 290 296 301 295 297 298 294 288 283 277 277 273 272 272 271 272 273 273 272 269 271 275 273 270 268 269 269 265 265 266 265
247 241 241 246 248 247 248 250 252 254 256 259 264 269 275 280 284 286 291 295 299 305 302 302 300 295 286 283 280 275 274 274 271 274 277 276 276 275 274 273 274 275 269 266 264 264 265 266 264
241 240 242 245 248 249 248 248 253 256 256 258 261 266 271 277 283 287 289 294 295 298 300 302 302 300 291 288 283 280 279 277 275 277 278 276 279 277 276 275 277 276 270 266 263 263 265 265 263
242 243 245 244 246 249 248 250 254 255 256 257 260 264 268 276 283 284 285 287 292 294 295 297 300 301 296 292 288 283 282 282 282 284 280 281 282 278 279 278 280 275 270 268 264 260 262 263 263
244 248 244 244 248 250 252 253 255 257 258 258 260 267 272 278 281 279 279 278 284 291 294 294 296 294 293 293 293 291 290 287 285 286 285 284 283 279 277 277 276 273 269 267 265 261 262 262 260
243 247 246 247 249 253 254 255 258 259 261 260 264 270 276 275 276 278 278 280 283 286 289 288 289 288 289 291 294 294 295 291 285 281 283 285 284 281 279 279 276 273 271 267 262 262 263 262 259
244 245 247 248 250 253 254 256 259 258 260 261 265 269 275 272 273 276 278 278 279 281 287 290 289 287 287 288 289 290 294 292 287 282 281 283 283 282 282 278 277 274 269 266 265 261 262 261 261
244 247 248 250 252 252 253 255 261 257 260 263 266 269 275 277 274 275 277 279 279 279 283 287 291 290 287 285 286 291 293 294 291 285 283 284 285 284 282 280 275 274 271 270 268 264 262 261 260
243 248 249 250 250 251 252 252 256 259 258 262 264 268 272 277 277 278 281 279 277 277 281 285 289 290 288 287 286 288 290 291 291 287 285 285 284 284 282 279 276 275 273 271 269 266 263 263 262
243 247 248 250 251 251 251 252 253 259 261 262 264 267 271 274 278 279 280 281 280 277 280 286 288 288 286 286 287 289 291 291 291 289 285 285 285 284 284 283 279 277 273 271 269 268 265 264 263
240 244 247 249 250 250 252 253 253 257 264 266 267 269 272 275 278 278 277 278 280 281 281 284 286 286 284 284 287 288 289 290 289 287 286 286 288 285 282 281 278 274 273 270 269 268 265 265 265
241 245 249 251 252 253 255 254 254 256 261 266 269 271 271 274 277 277 277 279 279 280 283 286 287 286 285 285 285 286 287 287 286 286 285 286 288 285 285 281 276 272 271 271 271 270 267 265 266
244 247 250 252 253 253 256 256 258 257 261 265 267 269 271 273 277 279 280 282 281 282 283 286 288 288 287 287 286 285 283 283 284 285 285 285 285 285 287 283 277 273 272 270 271 270 268 266 266
244 248 250 252 254 256 258 258 263 261 262 263 265 268 271 273 277 280 278 282 283 282 285 284 287 288 286 286 286 285 283 283 284 286 285 285 284 286 287 286 281 275 272 272 270 268 267 268 266
246 246 250 253 256 259 260 260 264 265 264 266 268 269 272 273 276 279 280 283 283 283 285 286 286 287 283 283 284 282 281 283 284 286 285 285 287 288 287 285 281 276 274 272 272 269 266 267 266
246 248 250 253 258 262 263 264 265 264 266 269 270 271 270 272 273 276 279 282 283 283 283 284 285 287 286 285 283 282 281 281 283 286 285 284 286 288 288 287 285 280 277 274 271 267 265 267 267
243 248 253 255 260 264 266 266 266 268 270 274 274 272 270 269 272 276 279 282 284 284 284 286 287 287 287 286 282 281 280 279 281 282 283 284 287 290 289 288 285 279 276 275 272 267 265 266 269
242 245 254 258 260 266 268 267 268 271 274 278 276 275 274 272 274 276 279 282 281 282 284 287 289 289 290 288 283 282 281 282 282 279 280 283 285 289 290 290 289 281 277 273 271 269 268 268 268
243 242 244 253 260 264 270 273 276 278 279 279 279 279 278 277 276 277 279 281 280 282 285 287 290 291 291 290 287 285 284 284 284 282 282 282 280 280 284 287 288 286 280 274 272 271 268 268 268
245 244 247 257 262 264 269 276 282 284 283 281 284 283 280 279 278 280 280 281 282 284 288 290 291 292 292 293 291 284 282 284 287 287 285 284 281 279 281 283 286 283 281 277 274 271 269 270 271
245 248 248 250 259 264 270 278 283 286 285 287 288 286 283 281 281 281 281 282 283 284 288 290 290 290 290 291 287 283 282 282 286 286 287 286 285 282 281 282 284 283 278 277 277 273 270 271 271
249 246 246 251 256 262 269 273 282 287 288 288 287 286 285 283 282 281 281 284 283 283 287 288 289 286 287 288 286 283 286 288 288 287 289 290 288 284 282 282 284 284 281 276 275 271 270 271 273
247 245 245 248 254 262 270 275 281 287 287 286 287 287 284 283 282 281 281 283 283 284 286 288 289 284 284 286 286 285 287 288 288 289 289 291 288 285 285 284 285 285 282 277 273 272 270 272 274
Height
5891 5891 5892 5893 5894 5896 5896 5895 5894 5894 5894 5893 5893 5892 5892 5892 5892 5893 5890 5888 5887 5886 5885 5885 5884 5883 5883 5882 5882 5881 5881 5880 5880 5880 5880 5880 5879 5879 5879 5879 5879 5880 5880 5880 5880 5880 5880 5880 5880
5889 5890 5891 5892 5893 5895 5895 5893 5893 5892 5892 5891 5891 5890 5890 5890 5889 5889 5887 5887 5886 5885 5884 5883 5883 5882 5881 5881 5880 5880 5879 5879 5879 5878 5878 5878 5878 5878 5878 5878 5878 5878 5878 5878 5878 5878 5878 5878 5879
5887 5888 5889 5890 5891 5893 5892 5891 5891 5890 5890 5890 5889 5889 5889 5888 5887 5887 5886 5885 5885 5884 5883 5882 5881 5880 5880 5879 5878 5878 5877 5877 5877 5876 5876 5876 5876 5876 5876 5876 5876 5876 5876 5876 5876 5876 5876 5876 5877
5885 5886 5888 5889 5889 5889 5889 5889 5888 5888 5888 5888 5887 5887 5887 5886 5886 5885 5885 5884 5883 5882 5881 5880 5879 5879 5878 5876 5876 5876 5875 5875 5875 5875 5874 5874 5874 5874 5873 5873 5873 5874 5874 5874 5874 5874 5874 5874 5874
5883 5884 5886 5886 5887 5887 5886 5886 5886 5886 5886 5886 5886 5885 5885 5885 5884 5884 5883 5883 5882 5880 5879 5878 5877 5877 5876 5875 5874 5874 5874 5873 5873 5873 5872 5872 5872 5872 5871 5871 5871 5871 5871 5871 5871 5871 5871 5872 5872
5881 5883 5884 5884 5884 5884 5884 5884 5884 5885 5885 5884 5884 5884 5884 5883 5883 5882 5882 5881 5880 5879 5877 5876 5875 5875 5874 5874 5873 5872 5872 5871 5871 5871 5871 5870 5870 5869 5869 5869 5869 5869 5869 5869 5869 5869 5869 5869 5869
5880 5881 5881 5882 5882 5882 5882 5882 5882 5882 5883 5883 5883 5883 5882 5882 5881 5881 5880 5879 5878 5876 5875 5874 5873 5873 5872 5872 5871 5870 5870 5869 5869 5869 5869 5868 5867 5867 5867 5867 5866 5866 5866 5866 5866 5866 5866 5866 5866
5877 5879 5879 5879 5879 5880 5880 5880 5880 5880 5881 5881 5881 5881 5881 5880 5880 5879 5878 5877 5876 5875 5874 5873 5872 5871 5870 5869 5869 5868 5868 5868 5867 5867 5866 5866 5865 5864 5864 5864 5864 5863 5863 5862 5862 5862 5863 5863 5863
5874 5877 5877 5877 5877 5877 5877 5877 5878 5878 5879 5879 5879 5879 5879 5878 5878 5877 5876 5876 5875 5874 5873 5872 5870 5869 5868 5867 5867 5866 5866 5865 5865 5864 5864 5863 5862 5861 5861 5861 5860 5860 5859 5859 5859 5859 5859 5859 5860
5872 5874 5875 5874 5874 5874 5875 5875 5876 5876 5877 5877 5877 5877 5876 5876 5876 5875 5874 5873 5872 5872 5871 5870 5869 5868 5867 5866 5865 5864 5863 5863 5862 5861 5861 5860 5859 5858 5857 5857 5856 5856 5856 5855 5855 5855 5855 5856 5856
5869 5871 5871 5871 5871 5872 5872 5873 5874 5874 5875 5875 5875 5875 5874 5874 5873 5873 5872 5871 5870 5870 5869 5868 5867 5866 5865 5864 5862 5861 5861 5860 5859 5858 5857 5857 5856 5855 5854 5853 5852 5852 5852 5851 5851 5851 5851 5852 5852
5867 5868 5868 5869 5869 5869 5870 5871 5871 5872 5873 5872 5872 5872 5872 5871 5871 5871 5870 5869 5869 5868 5867 5866 5865 5863 5862 5861 5860 5859 5858 5857 5856 5855 5854 5853 5852 5851 5850 5850 5849 5848 5847 5847 5847 5847 5847 5848 5848
5865 5865 5866 5866 5867 5867 5868 5868 5869 5870 5870 5870 5870 5870 5870 5869 5869 5868 5868 5867 5866 5865 5864 5863 5862 5861 5859 5858 5857 5856 5855 5854 5853 5852 5851 5850 5848 5847 5846 5845 5845 5844 5843 5843 5843 5843 5843 5844 5845
5862 5863 5863 5863 5864 5865 5865 5866 5867 5867 5867 5868 5868 5867 5867 5867 5866 5865 5865 5864 5863 5862 5861 5860 5859 5857 5856 5855 5853 5852 5851 5850 5849 5848 5847 5846 5844 5843 5842 5841 5840 5839 5838 5838 5838 5838 5839 5840 5840
5859 5860 5861 5861 5862 5862 5863 5864 5864 5864 5864 5864 5864 5864 5864 5864 5863 5862 5862 5861 5860 5859 5858 5857 5856 5854 5853 5851 5850 5849 5848 5847 5845 5844 5843 5841 5840 5839 5838 5837 5835 5834 5834 5833 5833 5834 5834 5835 5836
5857 5858 5859 5859 5859 5859 5862 5862 5862 5861 5862 5862 5862 5862 5861 5861 5860 5859 5858 5857 5857 5855 5855 5854 5852 5851 5849 5848 5847 5845 5844 5843 5841 5840 5839 5837 5836 5835 5833 5832 5831 5830 5829 5829 5829 5829 5829 5830 5831
5855 5856 5857 5857 5856 5856 5858 5859 5859 5858 5859 5859 5859 5859 5858 5858 5857 5856 5855 5854 5853 5852 5851 5850 5849 5848 5846 5845 5843 5842 5840 5839 5837 5836 5835 5833 5832 5830 5829 5828 5826 5825 5825 5825 5825 5825 5825 5826 5826
5853 5854 5854 5854 5854 5854 5854 5855 5855 5855 5856 5856 5856 5856 5855 5855 5854 5852 5852 5851 5850 5849 5848 5847 5845 5844 5842 5841 5839 5838 5836 5835 5834 5832 5831 5830 5828 5826 5825 5823 5822 5822 5821 5821 5821 5821 5821 5821 5822
5849 5850 5851 5851 5851 5851 5851 5851 5852 5852 5852 5852 5852 5852 5852 5851 5850 5849 5848 5847 5846 5846 5844 5843 5841 5840 5838 5837 5835 5834 5833 5831 5830 5828 5827 5826 5824 5823 5821 5819 5818 5818 5818 5817 5817 5816 5817 5817 5817
5845 5847 5848 5848 5848 5848 5848 5848 5848 5848 5849 5849 5849 5848 5848 5847 5846 5845 5844 5843 5843 5842 5840 5839 5837 5836 5834 5833 5831 5830 5829 5827 5826 5824 5823 5821 5820 5819 5817 5816 5814 5814 5813 5813 5813 5813 5813 5812 5812
5841 5843 5844 5845 5845 5845 5845 5845 5845 5845 5845 5845 5845 5844 5844 5843 5842 5841 5840 5839 5838 5837 5836 5835 5833 5832 5830 5828 5827 5826 5824 5823 5822 5820 5819 5817 5816 5815 5813 5812 5811 5810 5809 5809 5809 5809 5809 5808 5808
5838 5840 5841 5841 5842 5842 5843 5843 5843 5842 5841 5841 5841 5840 5840 5839 5838 5837 5836 5835 5834 5833 5832 5830 5829 5828 5826 5824 5823 5821 5820 5819 5818 5816 5815 5813 5811 5810 5809 5808 5807 5806 5805 5805 5804 5804 5804 5803 5803
5835 5836 5836 5837 5838 5839 5839 5839 5840 5838 5838 5837 5837 5836 5836 5835 5834 5833 5831 5831 5830 5829 5827 5826 5825 5823 5822 5820 5818 5817 5816 5815 5813 5812 5811 5809 5807 5806 5805 5804 5803 5802 5801 5800 5800 5799 5799 5799 5798
5830 5832 5833 5833 5834 5835 5835 5835 5836 5834 5834 5833 5833 5832 5831 5830 5830 5829 5827 5826 5825 5824 5823 5822 5820 5818 5817 5815 5814 5812 5811 5810 5809 5807 5806 5805 5803 5802 5801 5800 5798 5797 5796 5796 5795 5795 5794 5794 5794
5826 5829 5830 5831 5832 5832 5831 5831 5831 5830 5829 5829 5828 5827 5826 5825 5825 5824 5823 5822 5821 5820 5819 5817 5816 5814 5812 5810 5809 5808 5806 5805 5804 5803 5801 5800 5799 5798 5796 5795 5794 5793 5792 5791 5790 5790 5790 5789 5789
5822 5825 5827 5829 5830 5830 5827 5826 5827 5826 5825 5824 5823 5822 5821 5821 5820 5819 5818 5817 5817 5816 5814 5813 5811 5810 5808 5806 5804 5803 5802 5801 5800 5798 5797 5795 5794 5793 5792 5791 5790 5788 5787 5786 5786 5785 5785 5784 5784
5818 5820 5822 5823 5824 5824 5824 5823 5823 5821 5820 5819 5818 5817 5817 5816 5815 5814 5814 5813 5812 5811 5810 5808 5807 5805 5803 5802 5800 5799 5798 5797 5795 5794 5792 5791 5789 5788 5787 5786 5785 5784 5783 5782 5781 5780 5780 5780 5779
5814 5815 5816 5818 5819 5820 5820 5820 5819 5817 5816 5815 5814 5813 5812 5811 5811 5810 5809 5808 5808 5807 5805 5804 5802 5801 5799 5798 5796 5795 5794 5793 5791 5790 5788 5786 5784 5783 5782 5781 5780 5779 5778 5777 5776 5776 5775 5775 5775
5809 5810 5811 5813 5815 5816 5817 5818 5814 5813 5812 5811 5810 5809 5808 5807 5806 5806 5805 5804 5803 5802 5801 5799 5798 5797 5795 5794 5792 5791 5790 5788 5787 5785 5784 5782 5780 5779 5778 5777 5775 5774 5773 5772 5772 5771 5771 5770 5770
5804 5805 5807 5809 5809 5810 5811 5815 5809 5809 5808 5807 5806 5805 5804 5803 5802 5801 5800 5799 5798 5797 5796 5795 5794 5792 5791 5790 5788 5787 5786 5784 5783 5781 5779 5777 5776 5774 5773 5772 5771 5770 5769 5768 5767 5767 5766 5766 5765